Torna al catalogo

SL-14 R/B

AttivoPO
NORAD 11267·ROCKET BODY·🇷🇺 Russia

Lanciato Feb 12, 1979 da Plesetsk Cosmodrome

Loading…

Prossimi Passaggi (prossime 24 ore)

TLE

AggiornatoSource: Space-Track

Epoca: Sep 14, 2026, 00:50 UTC

1 11267U 79011B   26257.03488137  .00000352  00000-0  32025-4 0  9997
2 11267  82.5208 277.8393 0016892 143.6689 216.5681 14.92077841556868

Traccia SL-14 R/B in tempo reale con AllMySat

Download on the App Store